Regional Weather Roundup
Issued by NWS San Angelo, TX

Home | Current Version | Previous Version | Text Only | Print | Product List | Glossary On
Versions: 1 2 3 4 5 6 7 8 9 10 11 12 13 14 15 16 17 18 19 20 21 22 23 24 25 26 27 28 29 30 31 32 33 34 35 36 37 38 39 40 41 42 43 44 45 46 47 48 49 50
000
ASUS44 KSJT 201410
RWRSJT
WEST CENTRAL TEXAS REGIONAL WEATHER ROUNDUP
NATIONAL WEATHER SERVICE SAN ANGELO TX
800 AM CST MON NOV 20 2017

NOTE: "FAIR" INDICATES FEW OR NO CLOUDS BELOW 12,000 FEET WITH NO
SIGNIFICANT WEATHER AND/OR OBSTRUCTIONS TO VISIBILITY.

TXZ049-054-064>066-071>073-076>078-098-099-113-114-127-128-139-140-
154-155-168>170-201500
...LOCATIONS ACROSS WEST CENTRAL TEXAS...

CITY           SKY/WX    TMP DP  RH WIND       PRES   REMARKS
SAN ANGELO     CLEAR     38  28  67 SW5       30.14R WCI  34
ABILENE        CLEAR     40  29  64 S10       30.12S WCI  33
DYESS AFB      CLEAR     38  29  70 CALM      30.14F
JUNCTION       CLEAR     34  28  79 CALM      30.17S
SWEETWATER     CLEAR     44  26  48 S12       30.13R WCI  38
BROWNWOOD      NOT AVBL
COLEMAN        CLOUDY    39  30  70 S3        30.16R
SONORA         CLEAR     32  23  69 CALM      30.19S
OZONA          FAIR      32  27  80 CALM      30.17R
BRADY          NOT AVBL
$$

TEXAS PANHANDLE/OKLAHOMA PANHANDLE

CITY           SKY/WX    TMP DP  RH WIND       PRES   REMARKS
AMARILLO       CLOUDY    34  19  54 SW14      29.97R WCI  25
BORGER         CLOUDY    38  19  46 SW13      29.95R WCI  30
CANADIAN       CLOUDY    36  21  55 SW6       29.96R WCI  31
DALHART        CLOUDY    29  19  66 W5        29.95R WCI  24
DUMAS          CLOUDY    32  15  49 W14       29.93S WCI  22
GUYMON         NOT AVBL
HEREFORD       CLOUDY    29  20  70 MISG      30.00S
PAMPA          CLOUDY    38  20  48 SW14      29.96R WCI  30
PERRYTON       CLOUDY    35  20  55 SW9       29.90S WCI  28
$$

SOUTHERN PANHANDLE/SOUTH PLAINS/ROLLING PLAINS

CITY           SKY/WX    TMP DP  RH WIND       PRES   REMARKS
LUBBOCK        CLOUDY    36  20  52 SW12      30.04S WCI  28
SNYDER         CLEAR     33  26  72 S8        30.11S WCI  27
CHILDRESS      CLOUDY    32  23  69 S5        30.05S WCI  27
SEMINOLE       CLOUDY    33  23  67 W9        30.10R WCI  25
$$

PERMIAN BASIN

CITY           SKY/WX    TMP DP  RH WIND       PRES   REMARKS
MIDLAND        CLEAR     42  24  49 S7        30.09R WCI  38
ODESSA         CLEAR     42  24  49 SW9       30.10R WCI  37
WINK           CLEAR     31  23  72 NE5       30.09R WCI  26
$$

FAR WEST/SOUTHWEST MOUNTAINS/TRANS PECOS

CITY           SKY/WX    TMP DP  RH WIND       PRES   REMARKS
ALPINE         CLOUDY    47  26  44 CALM      30.19R
DRYDEN           N/A     40  26  57 W3        30.12R
EL PASO        PTCLDY    39  17  41 N7        30.15R WCI  34
FORT STOCKTON  CLEAR     40  27  59 S7        30.10R WCI  35
GUADALUPE PASS CLOUDY    40  17  39 SW17      30.13R WCI  31
MARFA          CLEAR     31  22  69 CALM      30.17R
PECOS          CLOUDY    32  23  68 CALM      30.11R
$$

DALLAS/FORT WORTH METROPLEX

CITY           SKY/WX    TMP DP  RH WIND       PRES   REMARKS
DFW AIRPORT    CLOUDY    43  32  65 CALM      30.19R
FTW MEACHAM    CLOUDY    43  35  73 S5        30.20R
DAL-EXECUTIVE  CLOUDY    47  30  51 S5        30.20R
GRAND PRAIRIE  CLEAR     43  30  61 S5        30.21S
ADDISON        CLEAR     46  30  53 S7        30.21R
MESQUITE       SUNNY     36  32  87 CALM      30.22R
LANCASTER      MOSUNNY   37  32  82 CALM      30.23R
$$

NORTH CENTRAL TEXAS

CITY           SKY/WX    TMP DP  RH WIND       PRES   REMARKS
SHRMAN/DENISON SUNNY     42  32  67 S8        30.20S WCI  37
GAINESVILLE    CLOUDY    38  29  69 CALM      30.20S
BRIDGEPORT     NOT AVBL
DENTON         CLOUDY    36  31  82 SE5       30.20R WCI  32
WAXAHACHIE     MOSUNNY   40  32  71 CALM      30.22R
GRANBURY       CLOUDY    38  33  80 CALM      30.21R
$$

WESTERN NORTH TEXAS

CITY           SKY/WX    TMP DP  RH WIND       PRES   REMARKS
WICHITA FALLS  CLOUDY    34  28  79 S9        30.13S WCI  27
VERNON         CLOUDY    34  25  70 SW6       30.11R WCI  28
BRECKENRIDGE   SUNNY     42  29  61 S5        30.15R HAZE    WCI  39
COMANCHE       CLOUDY    42  32  68 S9        30.17S WCI  36
$$

CENTRAL AND SOUTH CENTRAL TEXAS

CITY           SKY/WX    TMP DP  RH WIND       PRES   REMARKS
AUSTIN/BERGSTM PTSUNNY   41  39  93 CALM      30.21R
WACO           SUNNY     35  32  88 CALM      30.22R
HILLSBORO      SUNNY     40  34  79 CALM      30.21R
TEMPLE         FOG       36  34  93 MISG      30.23R VSB 1/4
KILLEEN-GRAY   CLOUDY    42  30  63 CALM      30.19R HAZE
FORT HOOD      CLOUDY    43  30  59 CALM      30.18R
GEORGETOWN     MOSUNNY   38  35  89 CALM      30.23R
LAGO VISTA     FAIR      49  35  57 S3        30.20S
SAN MARCOS     MOSUNNY   41  35  79 NW3       30.22R
NEW BRAUNFELS  MOSUNNY   41  37  86 NW3       30.20R
RANDOLPH AFB   MOSUNNY   43  37  79 N6        30.21R WCI  39
SAN ANTONIO    CLOUDY    46  37  71 NW3       30.21R
STINSON        SUNNY     46  38  73 N3        30.20R
PLEASANTON     NOT AVBL
LA GRANGE      MOSUNNY   40  39  94 CALM      30.20R
GIDDINGS       MOSUNNY   43  40  90 CALM      30.22R
$$

EAST TEXAS

CITY           SKY/WX    TMP DP  RH WIND       PRES   REMARKS
PARIS          CLOUDY    36  32  85 CALM      30.23R
CLARKSVILLE    NOT AVBL
TYLER          CLOUDY    42  36  79 SE5       30.22R WCI  39
LONGVIEW       NOT AVBL
PALESTINE      CLOUDY    40  35  84 SE3       30.24R
NACOGDOCHES    CLOUDY    35  34  96 CALM      30.25R
$$

TEXAS HILL COUNTRY AND EDWARDS PLATEAU

CITY           SKY/WX    TMP DP  RH WIND       PRES   REMARKS
LLANO          CLOUDY    34  32  93 CALM      30.24R
HORSESHOE BAY  FAIR      38  35  90 CALM      30.21R
KERRVILLE      CLEAR     33  32  94 CALM      30.19S
FREDERICKSBRG  CLEAR     33  31  90 CALM      30.20R
ROCKSPRINGS    NOT AVBL
HONDO          CLEAR     44  34  67 NE5       30.20R
UVALDE         SUNNY     42  33  71 NE6       30.20S WCI  38
DEL RIO        CLEAR     43  33  68 CALM      30.17R
$$

SOUTHEAST TEXAS

CITY           SKY/WX    TMP DP  RH WIND       PRES   REMARKS
COLLEGE STN    MOSUNNY   47  36  65 SE5       30.22R
CALDWELL       CLOUDY    41  39  93 CALM      30.23R
CROCKETT         N/A    N/A N/A N/A MISG        N/A
BRENHAM        MOSUNNY   45  42  90 CALM      30.23R
HUNTSVILLE     MOSUNNY   51  31  46 VRB3      30.22R
CONROE         MOSUNNY   43  40  89 E3        30.23R
HOUSTON BUSH   PTSUNNY   47  42  83 CALM      30.22S
HOUSTON HOBBY  PTSUNNY   53  41  63 E6        30.21S
PERLAND        PTSUNNY   55  46  71 NE6       30.22S
WHARTON        CLOUDY    47  41  80 CALM      30.22R
$$

THE UPPER TEXAS COAST

CITY           SKY/WX    TMP DP  RH WIND       PRES   REMARKS
ORANGE         MOSUNNY   44  42  91 NE3       30.26S
PORT ARTHUR    MOSUNNY   50  41  71 E5        30.23S
GALVESTON      SUNNY     62  43  49 E10       30.20F
ANGLETON       MOSUNNY   51  42  71 N6        30.20S
BAY CITY       MOSUNNY   51  42  70 NE3       30.20R
$$

TEXAS COASTAL BEND, RIO GRANDE PLAINS DEEP SOUTH TEXAS

CITY           SKY/WX    TMP DP  RH WIND       PRES   REMARKS
VICTORIA       MOSUNNY   46  41  82 NE5       30.21R
BEEVILLE       FAIR      48  40  75 NE8       30.19R
ROCKPORT       CLOUDY    58  47  66 NE7       30.19R
PORT ARANSAS   NOT AVBL
PORT LAVACA    MOSUNNY   54  42  63 NE7       30.20R
CORPUS CHRISTI CLOUDY    55  44  66 NE6       30.19S
KINGSVILLE NAS LGT RAIN  51  47  86 NE8       30.19R
COTULLA        SUNNY     48  37  65 CALM      30.20R
LAREDO         SUNNY     49  41  74 CALM      30.19R
BROWNSVILLE    CLOUDY    62  45  53 N10       30.17R
PORT ISABEL    CLOUDY    61  48  62 N10       30.17R
HEBBRONVILLE   MOSUNNY   48  44  87 N3        30.19R
MCALLEN        TSTM      57  47  69 NW5       30.18R
WESLACO        CLOUDY    56  44  64 E7        30.14F
FALFURRIAS     NOT AVBL
EDINBURG       LGT RAIN  54  48  80 NW5       30.18R
$$




USA.gov is the U.S. government's official web portal to all federal, state and local government web resources and services.